When you browse on this site, cookies collect data to enhance your experience and personalize the content and advertising you see.
Visit our Privacy Policy to learn more. By continuing to use the site, you agree to this use of cookies and data.

Hourly Weather Eisenstadt

Today, 11 July, Saturday

Time Temperature Precipitation Wind Pressure Humidity
00:00 +20°C° 0 mm 3 mps 721 mmHg 79%
01:00 +19°C° 0 mm 4 mps 722 mmHg 82%
02:00 +19°C° 0 mm 4 mps 722 mmHg 83%
03:00 +18°C° 0 mm 4 mps 722 mmHg 83%
04:00 +18°C° 0 mm 3 mps 722 mmHg 83%
05:00 +19°C° 0 mm 3 mps 722 mmHg 80%
06:00 +20°C° 0 mm 3 mps 722 mmHg 77%
07:00 +21°C° 0 mm 3 mps 723 mmHg 74%
08:00 +22°C° 0.1 mm 3 mps 723 mmHg 71%
09:00 +23°C° 0.1 mm 4 mps 723 mmHg 68%
10:00 +25°C° 0.1 mm 4 mps 723 mmHg 64%
11:00 +22°C° 1.2 mm 5 mps 723 mmHg 71%
12:00 +20°C° 1.2 mm 6 mps 723 mmHg 77%
13:00 +16°C° 1.2 mm 7 mps 723 mmHg 83%
14:00 +16°C° 0.7 mm 7 mps 724 mmHg 85%
15:00 +15°C° 0.7 mm 6 mps 724 mmHg 86%
16:00 +14°C° 0.7 mm 6 mps 724 mmHg 87%
17:00 +14°C° 1.2 mm 5 mps 725 mmHg 90%
18:00 +14°C° 1.2 mm 5 mps 725 mmHg 92%
19:00 +13°C° 1.2 mm 4 mps 725 mmHg 94%
20:00 +13°C° 0.4 mm 4 mps 726 mmHg 94%
21:00 +13°C° 0.4 mm 3 mps 726 mmHg 94%
22:00 +13°C° 0.4 mm 3 mps 726 mmHg 94%
23:00 +12°C° 0.1 mm 3 mps 726 mmHg 94%

Tomorrow, 12 July, Sunday

Time Temperature Precipitation Wind Pressure Humidity
00:00 +13°C° 0.1 mm 2 mps 727 mmHg 93%
01:00 +13°C° 0.1 mm 2 mps 727 mmHg 92%
02:00 +12°C° 0 mm 2 mps 727 mmHg 93%
03:00 +11°C° 0 mm 3 mps 726 mmHg 93%
04:00 +10°C° 0 mm 3 mps 726 mmHg 93%
05:00 +12°C° 0 mm 3 mps 727 mmHg 87%
06:00 +13°C° 0 mm 4 mps 727 mmHg 82%
07:00 +14°C° 0 mm 4 mps 727 mmHg 76%
08:00 +15°C° 0 mm 4 mps 728 mmHg 67%
09:00 +17°C° 0 mm 5 mps 728 mmHg 57%
10:00 +19°C° 0 mm 5 mps 728 mmHg 48%
11:00 +20°C° 0 mm 5 mps 728 mmHg 46%
12:00 +21°C° 0 mm 5 mps 728 mmHg 44%
13:00 +21°C° 0 mm 5 mps 728 mmHg 42%
14:00 +21°C° 0 mm 5 mps 728 mmHg 43%
15:00 +21°C° 0 mm 4 mps 727 mmHg 45%
16:00 +21°C° 0 mm 4 mps 727 mmHg 46%
17:00 +20°C° 0 mm 4 mps 727 mmHg 53%
18:00 +18°C° 0 mm 3 mps 727 mmHg 61%
19:00 +17°C° 0 mm 2 mps 727 mmHg 68%
20:00 +16°C° 0 mm 2 mps 727 mmHg 70%
21:00 +15°C° 0 mm 2 mps 727 mmHg 73%
22:00 +13°C° 0 mm 2 mps 728 mmHg 75%
23:00 +13°C° 0 mm 2 mps 727 mmHg 76%

Day after tomorrow, 13 July, Monday

Time Temperature Precipitation Wind Pressure Humidity
00:00 +13°C° 0 mm 2 mps 727 mmHg 76%
01:00 +13°C° 0 mm 2 mps 727 mmHg 77%
02:00 +12°C° 0 mm 2 mps 727 mmHg 79%
03:00 +12°C° 0 mm 2 mps 727 mmHg 80%
04:00 +12°C° 0 mm 2 mps 727 mmHg 82%
05:00 +14°C° 0 mm 2 mps 727 mmHg 77%
06:00 +15°C° 0 mm 2 mps 727 mmHg 72%
07:00 +17°C° 0 mm 2 mps 727 mmHg 66%
08:00 +18°C° 0 mm 2 mps 727 mmHg 60%
09:00 +20°C° 0 mm 2 mps 727 mmHg 54%
10:00 +21°C° 0 mm 2 mps 727 mmHg 48%
11:00 +21°C° 0 mm 2 mps 727 mmHg 47%
12:00 +23°C° 0 mm 2 mps 726 mmHg 45%
13:00 +23°C° 0 mm 2 mps 726 mmHg 44%
14:00 +23°C° 0 mm 2 mps 726 mmHg 44%
15:00 +23°C° 0 mm 2 mps 725 mmHg 45%
16:00 +23°C° 0 mm 2 mps 725 mmHg 46%
17:00 +21°C° 0 mm 2 mps 725 mmHg 53%
18:00 +19°C° 0 mm 2 mps 724 mmHg 60%
19:00 +19°C° 0 mm 1 mps 724 mmHg 67%
20:00 +18°C° 0 mm 1 mps 724 mmHg 69%
21:00 +15°C° 0 mm 1 mps 724 mmHg 71%
22:00 +14°C° 0 mm 1 mps 724 mmHg 73%
23:00 +14°C° 0 mm 1 mps 724 mmHg 74%

14 July, Tuesday

Time Temperature Precipitation Wind Pressure Humidity
00:00 +14°C° 0 mm 1 mps 724 mmHg 75%
01:00 +13°C° 0 mm 1 mps 724 mmHg 76%
02:00 +13°C° 0 mm 1 mps 724 mmHg 77%
03:00 +13°C° 0 mm 1 mps 724 mmHg 77%
04:00 +12°C° 0 mm 1 mps 724 mmHg 78%
05:00 +14°C° 0 mm 1 mps 724 mmHg 74%
06:00 +16°C° 0 mm 1 mps 724 mmHg 69%
07:00 +18°C° 0 mm 1 mps 724 mmHg 65%
08:00 +20°C° 0 mm 1 mps 724 mmHg 61%
09:00 +21°C° 0 mm 1 mps 724 mmHg 56%
10:00 +21°C° 0 mm 2 mps 724 mmHg 52%
11:00 +23°C° 0 mm 2 mps 724 mmHg 51%
12:00 +24°C° 0 mm 2 mps 724 mmHg 50%
13:00 +24°C° 0 mm 2 mps 723 mmHg 49%
14:00 +24°C° 0 mm 2 mps 723 mmHg 50%
15:00 +24°C° 0 mm 2 mps 723 mmHg 51%
16:00 +24°C° 0 mm 3 mps 722 mmHg 52%
17:00 +23°C° 0 mm 2 mps 722 mmHg 58%
18:00 +21°C° 0 mm 2 mps 722 mmHg 64%
19:00 +20°C° 0 mm 1 mps 722 mmHg 70%
20:00 +19°C° 0 mm 1 mps 722 mmHg 72%
21:00 +18°C° 0 mm 1 mps 722 mmHg 74%
22:00 +16°C° 0 mm 1 mps 722 mmHg 76%
23:00 +16°C° 0 mm 1 mps 722 mmHg 76%

15 July, Wednesday

Time Temperature Precipitation Wind Pressure Humidity
00:00 +15°C° 0 mm 1 mps 722 mmHg 77%
01:00 +15°C° 0 mm 1 mps 722 mmHg 77%
02:00 +15°C° 0 mm 1 mps 722 mmHg 78%
03:00 +14°C° 0 mm 1 mps 722 mmHg 79%
04:00 +14°C° 0 mm 1 mps 722 mmHg 80%
05:00 +16°C° 0 mm 1 mps 722 mmHg 75%
06:00 +19°C° 0 mm 1 mps 722 mmHg 70%
07:00 +20°C° 0 mm 1 mps 722 mmHg 65%
08:00 +22°C° 0.1 mm 1 mps 722 mmHg 61%
09:00 +23°C° 0.1 mm 1 mps 722 mmHg 58%
10:00 +24°C° 0.1 mm 2 mps 722 mmHg 54%
11:00 +25°C° 0.4 mm 2 mps 722 mmHg 55%
12:00 +25°C° 0.4 mm 2 mps 722 mmHg 56%
13:00 +25°C° 0.4 mm 2 mps 722 mmHg 58%
14:00 +23°C° 0.3 mm 2 mps 722 mmHg 64%
15:00 +21°C° 0.3 mm 2 mps 722 mmHg 71%
16:00 +19°C° 0.3 mm 3 mps 721 mmHg 77%
17:00 +19°C° 0.1 mm 3 mps 722 mmHg 78%
18:00 +18°C° 0.1 mm 3 mps 722 mmHg 79%
19:00 +17°C° 0.1 mm 3 mps 722 mmHg 80%
20:00 +17°C° 0 mm 2 mps 722 mmHg 81%
21:00 +17°C° 0 mm 2 mps 723 mmHg 82%
22:00 +16°C° 0 mm 1 mps 723 mmHg 83%
23:00 +16°C° 0.2 mm 1 mps 723 mmHg 86%

16 July, Thursday

Time Temperature Precipitation Wind Pressure Humidity
00:00 +15°C° 0.2 mm 1 mps 723 mmHg 88%
01:00 +15°C° 0.2 mm 1 mps 723 mmHg 91%
02:00 +15°C° 0 mm 1 mps 723 mmHg 91%
03:00 +15°C° 0 mm 1 mps 723 mmHg 90%
04:00 +15°C° 0 mm 1 mps 723 mmHg 90%
05:00 +16°C° 0 mm 1 mps 723 mmHg 89%
06:00 +16°C° 0 mm 1 mps 723 mmHg 87%
07:00 +18°C° 0 mm 1 mps 724 mmHg 85%
08:00 +18°C° 0.1 mm 1 mps 724 mmHg 83%
09:00 +18°C° 0.1 mm 2 mps 724 mmHg 80%
10:00 +19°C° 0.1 mm 2 mps 724 mmHg 77%
11:00 +20°C° 0.1 mm 2 mps 724 mmHg 72%
12:00 +21°C° 0.1 mm 2 mps 724 mmHg 68%
13:00 +23°C° 0.1 mm 2 mps 724 mmHg 64%
14:00 +23°C° 0.1 mm 2 mps 724 mmHg 62%
15:00 +24°C° 0.1 mm 2 mps 724 mmHg 60%
16:00 +24°C° 0.1 mm 3 mps 723 mmHg 58%
17:00 +22°C° 0.1 mm 3 mps 723 mmHg 62%
18:00 +20°C° 0.1 mm 2 mps 723 mmHg 67%
19:00 +19°C° 0.1 mm 2 mps 723 mmHg 72%
20:00 +18°C° 0 mm 2 mps 724 mmHg 73%
21:00 +17°C° 0 mm 3 mps 724 mmHg 75%
22:00 +16°C° 0 mm 3 mps 724 mmHg 77%
23:00 +14°C° 0 mm 3 mps 724 mmHg 77%
Show more